• MPC Preparation (Info)

  • MPEC 2022-Y224 : 2022 YT6

    The following Minor Planet Electronic Circular may be linked-to from your own Web pages, but must not otherwise be redistributed electronically.

    A form allowing access to any MPEC is at the bottom of this page.


    Read MPEC 2022-Y223 Read MPEC 2022-Y225


    M.P.E.C. 2022-Y224                            Issued 2022 December 30, 15:51 UT
    
         The Minor Planet Electronic Circulars contain information on unusual
             minor planets, routine data on comets and natural satellites,
             and occasional editorial announcements.  They are published
        on behalf of Division F of the International Astronomical Union by the
              Minor Planet Center, Smithsonian Astrophysical Observatory,
                              Cambridge, MA 02138, U.S.A.
    			  
                 Prepared using the Tamkin Foundation Computer Network
    
                                  MPC@CFA.HARVARD.EDU
                URL https://www.minorplanetcenter.net/    ISSN 1523-6714
    
                                    2022 YT6                                 
    
    
    Observations:
         K22Y06T* C2022 12 29.85921504 45 05.62 +10 24 11.8          17.6 RoEY224K88
         K22Y06T  C2022 12 29.85947604 45 05.59 +10 24 39.7          17.9 RoEY224K88
         K22Y06T  C2022 12 29.85973404 45 05.52 +10 25 07.2          18.0 RoEY224K88
         K22Y06T  C2022 12 29.85999304 45 05.51 +10 25 34.4          17.8 RoEY224K88
         K22Y06T  C2022 12 29.86680404 45 04.24 +10 37 49.7          17.7 RoEY224K88
         K22Y06T  C2022 12 29.86732204 45 04.17 +10 38 43.8          17.7 RoEY224K88
         K22Y06T  C2022 12 29.86758104 45 04.13 +10 39 11.5          17.8 RoEY224K88
         K22Y06T  C2022 12 29.86784104 45 04.06 +10 39 39.7          17.9 RoEY224K88
         K22Y06T  C2022 12 29.87144604 45 03.45 +10 46 07.1          17.7 RoEY224K88
         K22Y06T  C2022 12 29.87170404 45 03.40 +10 46 35.0          17.7 RoEY224K88
         K22Y06T  C2022 12 29.87196304 45 03.30 +10 47 02.4          17.7 RoEY224K88
         K22Y06T KC2022 12 29.88073404 45 10.930+11 02 15.32         17.8 GVEY224J95
         K22Y06T KC2022 12 29.88126304 45 10.846+11 03 12.74         18.0 GVEY224J95
         K22Y06T KC2022 12 29.88178704 45 10.759+11 04 08.62         18.0 GVEY224J95
         K22Y06T KC2022 12 29.88230604 45 10.663+11 05 04.70         18.0 GVEY224J95
         K22Y06T  C2022 12 29.88701804 45 00.70 +11 14 01.9                oEY224K88
         K22Y06T KC2022 12 29.88831304 45 00.49 +11 16 20.7          18.0 RoEY224K88
         K22Y06T  C2022 12 29.88909004 45 00.32 +11 17 45.5                oEY224K88
         K22Y06T KC2022 12 29.89453 04 45 03.43 +11 28 04.7          18.3 GVEY224K83
         K22Y06T KC2022 12 29.90315 04 45 01.80 +11 43 32.6          18.6 GVEY224K83
         K22Y06T KC2022 12 29.93474904 45 01.651+12 38 56.87         18.0 GVEY224Z80
         K22Y06T KC2022 12 29.94135504 45 00.622+12 50 44.63         17.6 GVEY224Z80
         K22Y06T KC2022 12 29.94705804 44 50.52 +13 01 14.6          17.9 RoEY224K88
         K22Y06T KC2022 12 29.94783504 44 50.39 +13 02 37.5          18.0 RoEY224K88
         K22Y06T KC2022 12 29.94796304 44 59.443+13 02 31.63         17.8 GVEY224Z80
         K22Y06T KC2022 12 29.94861204 44 50.27 +13 04 00.5          17.8 RoEY224K88
         K22Y06T KC2022 12 29.94938704 44 50.16 +13 05 23.5          18.0 RoEY224K88
         K22Y06T KC2022 12 29.94964104 44 59.683+13 05 32.14         18.0 GVEY224J95
         K22Y06T KC2022 12 29.95016204 44 50.02 +13 06 46.1          18.8 RoEY224K88
         K22Y06T KC2022 12 29.95054204 44 59.525+13 07 08.29         18.0 GVEY224J95
         K22Y06T KC2022 12 29.95147904 44 59.357+13 08 48.44         17.8 GVEY224J95
         K22Y06T KC2022 12 29.95182504 44 49.76 +13 09 43.1                oEY224K88
         K22Y06T KC2022 12 29.95239204 44 59.227+13 10 26.26         17.8 GVEY224J95
         K22Y06T KC2022 12 29.95261204 44 49.61 +13 11 07.1          17.9 RoEY224K88
         K22Y06T KC2022 12 29.95339404 44 49.54 +13 12 30.8          17.9 RoEY224K88
         K22Y06T KC2022 12 29.95417504 44 49.41 +13 13 54.7          18.0 RoEY224K88
         K22Y06T KC2022 12 29.95495204 44 49.29 +13 15 17.0          18.0 RoEY224K88
         K22Y06T KC2022 12 29.98822 04 44 49.735+14 14 09.10         17.5 GXEY224B72
         K22Y06T KC2022 12 29.99237 04 44 49.128+14 21 29.74         18.1 GXEY224B72
         K22Y06T KC2022 12 29.99661 04 44 48.504+14 29 00.13         18.5 GXEY224B72
         K22Y06T KC2022 12 30.53847704 44 58.90 +29 42 44.7          17.9 GVEY224900
         K22Y06T KC2022 12 30.54258404 44 57.98 +29 49 08.0          17.7 GVEY224900
         K22Y06T KC2022 12 30.54668804 44 57.06 +29 55 29.9          17.3 GVEY224900
    
    Observer details:
    900 Moriyama.  Observer Y. Ikari.  0.26-mf/7.0 reflector + CCD.
    B72 Soerth.  Observer B. Koch.  0.36-m f/7.6 Schmidt-Cassegrain + CCD.
    J95 Great Shefford.  Observer P. Birtwhistle.  0.41-m f/6.3 Schmidt-Cassegrain
        + CCD.
    K83 Beppe Forti Astronomical Observatory, Montelupo.  Observers M. Tombelli,
        A. Squilloni.  Measurers M. Tombelli, F. Bernardi.  0.40-m f/8 Ritchey-
        Chretien + CCD.
    K88 GINOP-KHK, Piszkesteto.  Observer K. Sarneczky.  0.60-m Schmidt + CCD.
    Z80 Northolt Branch Observatory.  Observer G. Wells.  Measurers G. Wells, D.
        Bamberger.  0.25-m f/8.0 Ritchey-Chretien + CCD.
    
    Orbital elements:
    2022 YT6                                                 Earth MOID = 0.0133 AU
    Epoch 2023 Feb. 25.0 TT = JDT 2460000.5                 Veres                   
    M  52.81224              (2000.0)            P               Q                  
    n   0.64299440     Peri.  331.05589     +0.32053306     -0.86054783             
    a   1.3294273      Node    97.81480     +0.92769242     +0.20073049             
    e   0.2694699      Incl.   23.55222     +0.19142971     +0.46815030             
    P   1.53           H   26.10          G   0.15           U   8                  
    Residuals in seconds of arc
    221229 K88  0.3+  1.1+    221229 K88  0.2+  0.1-    221229 J95  0.2-  0.3-
    221229 K88  0.5+  0.8+    221229 K88  0.4+  0.4-    221229 K88  0.0   0.7-
    221229 K88  0.2+  0.6+    221229 K88  0.1-  0.9+    221229 J95  0.1+  0.1-
    221229 K88  0.8+  0.1-    221229 K83  0.1-  0.4+    221229 K88  0.4-  0.6-
    221229 K88  0.2-  1.9+    221229 K83 (0.0   2.1+)   221229 K88  0.4+  0.4-
    221229 K88  0.1+  0.2+    221229 Z80  0.3-  0.4-    221229 K88  0.3+  0.2+
    221229 K88  0.2+  0.0     221229 Z80  0.6+  0.2-    221229 K88  0.3+  0.4-
    221229 K88  0.1-  0.3+    221229 K88  0.1+  0.3-    221229 B72  0.3+  1.5+
    221229 K88  0.3+  0.3-    221229 K88  0.0   0.4-    221229 B72  0.3+  0.5+
    221229 K88  0.2+  0.1-    221229 Z80  0.8-  0.3-    221229 B72  0.2+  1.1+
    221229 K88  0.6-  0.6-    221229 K88  0.1+  0.3-    221230 900  0.1+  0.0
    221229 J95  0.1+  0.2-    221229 K88  0.3+  0.1-    221230 900  0.1-  0.1+
    221229 J95  0.1+  0.3+    221229 J95  0.2+  0.1-    221230 900  0.2-  0.2-
    221229 J95  0.0   0.3-    221229 K88  0.0   0.2-
    221229 J95  0.2-  0.0     221229 J95  0.0   0.3-
    
    Ephemeris:
    2022 YT6                 a,e,i = 1.33, 0.27, 24                  q = 0.9712
    Date    TT    R. A. (2000) Decl.     Delta      r    Elong.  Phase     V
    2022 11 30    04 48 09.3 -78 42 22   0.2264  0.9717    79.7    87.1    25.9
    ...
    2022 12 15    04 48 18.9 -74 24 25   0.1171  0.9753    82.1    91.0    24.6
    ...
    2022 12 23    04 46 59.4 -65 57 50   0.05590 0.9847    89.4    87.3    22.9
    ...
    2022 12 29    04 45 14.5 -14 01 04   0.01648 0.9951   134.8    44.6    18.9
    2022 12 30    04 45 02.2 +14 39 26   0.01536 0.9971   152.8    26.8    18.2
    2022 12 31    04 44 54.2 +40 35 58   0.01808 0.9991   150.4    29.1    18.7
    ...
    2023 01 06    04 49 13.7 +83 06 52   0.05943 1.0128   118.2    58.8    22.1
    ...
    2023 01 14    12 53 12.7 +89 22 35   0.1215  1.0344   111.6    62.2    23.8
    ...
    2023 01 29    14 02 32.4 +86 49 18   0.2358  1.0837   108.7    59.4    25.3
    
    M. P. C. Staff               (C) Copyright 2022 MPC           M.P.E.C. 2022-Y224
    


    Read MPEC 2022-Y223 Read MPEC 2022-Y225


    MPEC number:

    Enter an MPEC number in one of the following forms:

    • 1997-B01 (the full form)
    • J97B01 (the packed version of the full form)
    • B01 (the abbreviated form)